Regional Weather Roundup
Issued by NWS

Home | Current Version | Previous Version | Text Only | Print | Product List | Glossary Off
Versions: 1 2 3 4 5 6 7 8 9 10 11 12 13 14 15 16 17 18 19 20 21 22 23 24 25 26 27 28 29 30 31 32 33 34 35 36 37 38 39 40 41 42 43 44 45 46 47 48 49 50

000
ASUS43 KFSD 210410
RWRSD

WEATHER ROUNDUP FOR SOUTH DAKOTA
NATIONAL WEATHER SERVICE SIOUX FALLS SD
1100 PM CDT WED AUG 20 2014

NOTE: "FAIR" INDICATES FEW OR NO CLOUDS BELOW 12,000 FEET WITH NO
SIGNIFICANT WEATHER AND/OR OBSTRUCTIONS TO VISIBILITY.


SDZ001>005-009-010-012>017-210500-
NORTHWEST AND NORTH CENTRAL SOUTH DAKOTA

CITY           SKY/WX    TMP DP  RH WIND       PRES   REMARKS
BUFFALO          N/A     64  58  80 N6        29.76S
FAITH            N/A     65  62  90 N10       29.76R
$$

SDZ012>016-024>037-041>051-057-063-072>074-210500-
SOUTHWEST AND SOUTH CENTRAL SOUTH DAKOTA

CITY           SKY/WX    TMP DP  RH WIND       PRES   REMARKS
RAPID CTY ARPT CLEAR     68  57  68 N13       29.82R
PIERRE         CLEAR     75  72  90 SE8       29.66R
CUSTER         CLEAR     63  47  55 N5        29.96S
ELLSWORTH AFB  CLEAR     71  59  66 N14       29.83R
PHILIP         CLEAR     73  62  68 NW5       29.72R
PINE RIDGE     PTCLDY    70  55  59 CALM      29.82R
WINNER         FAIR      76  69  79 SE6       29.69S
$$

SDZ004>011-016>023-039-040-210500-
NORTHEAST SOUTH DAKOTA

CITY           SKY/WX    TMP DP  RH WIND       PRES   REMARKS
ABERDEEN       MOCLDY    72  69  90 E7        29.72R
WATERTOWN      MOCLDY    73  69  87 SE7       29.76S
SISSETON         N/A     75  70  84 SE9       29.75F
$$

SDZ017-020-022-023-036>040-048>070-210500-
SOUTHEAST SOUTH DAKOTA

CITY           SKY/WX    TMP DP  RH WIND       PRES   REMARKS
SIOUX FALLS    CLOUDY    74  71  91 SE9       29.75F
HURON          PTCLDY    75  70  84 SE10      29.69S
CHAMBERLAIN    CLEAR     73  72  95 SE7       29.67S
MITCHELL       CLEAR     75  73  93 SE9       29.69F
YANKTON        MOCLDY    77  75  94 E8        29.72F
$$

ABBREVIATIONS USED IN REMARKS
   TC - TEMPERATURE IN CELSIUS
  WCI - WIND CHILL INDEX
   HX - HEAT INDEX
  VSB - VISIBILITY




USA.gov is the U.S. government's official web portal to all federal, state and local government web resources and services.